DateTime,Index
1990090800,0.0
1990090806,0.0
1990090812,0.0
1990090818,0.0
1990090900,0.0
1990090906,0.0
1990090912,0.0
1990090918,0.0
1990091000,0.0
1990091006,0.0
1990091012,0.0
1990091018,0.0
1990091100,0.0
1990091106,0.0
1990091112,0.0
1990091118,0.0
1990091200,0.0
1990091206,0.0
1990091212,0.0
1990091218,0.0
1990091300,0.0
1990091306,0.0
1990091312,1225.0
1990091318,1600.0
1990091400,2025.0
1990091406,2500.0
1990091412,3025.0
1990091418,3600.0
1990091500,4225.0
1990091506,4900.0
1990091512,5625.0
1990091518,7225.0
1990091600,10000.0
1990091606,13225.0
1990091612,16900.0
1990091618,18225.0
1990091700,18225.0
1990091706,21025.0
1990091712,21025.0
1990091718,18225.0
1990091800,15625.0
1990091806,13225.0
1990091812,12100.0
1990091818,11025.0
1990091900,9025.0
1990091906,8100.0
1990091912,7225.0
1990091918,4225.0
1990092000,3025.0
1990092006,2500.0
1990092012,2025.0
1990092018,2025.0
1990092100,2500.0
1990092106,2500.0
1990092112,2500.0
1990092118,2500.0
1990092200,2500.0
